NOAA 16 DEB, 42384

Orbit data source: Space-Track

NOAA 16 DEB, 42384 is space debris in SSO originally from a launch on Thu, 21 Sep 2000 UTC launched from the Air Force Western Test Range (AFWTR). Debris objects in space refer to the collection of defunct objects orbiting the Earth. Examples of debris include non-operational satellites, rocket bodies, and fragments generated from explosions, collisions, or faulty payload assembly.

Loading next visibility...
Identifier
42384, 2000-055SC
Orbit
SSO
Country
Flag of USUS
Related business
Manufacturer
Unknown
Mission
Spacecraft
Bus & Motor
Unknown
Mass
Unknown
Launch date (UTC)
2000-09-21 (26 years ago)
Launch vehicle
Unknown
Launch site
Air Force Western Test Range (AFWTR)
Object type
Payload
Rocket body
Debris
Shape & HBR
Unknown shape, 0.1 m
Radar Cross Section
Medium (>0.1 m² and <1 m²)

Expand to show TLE details & history
Last TLE update: 1 day ago

TLE from 1 day ago
0 NOAA 16 DEB
1 42384U 00055SC  26206.03005966  .00004885  00000-0  17522-2 0  9990
2 42384  98.6617 284.0773 0014100 185.2110 174.8930 14.34302372537405
Epoch: 2026-07-25T00:43Z
TLE epoch observation values (Epoch: 2026-07-25T00:43:17.154Z)
Latitude
-0.00003°
Longitude
-29.49237°
Altitude
790.373 km
Speed
7.453 km/s
True Right ascension
18h 56m 18s
True Declination
0° 00' 00"
Sunlit
Object was in full shadow at epoch
Visualization orbit readout
Latitude
Unknown
Longitude
Unknown
Altitude
Unknown
Speed
Unknown
Apparent Right ascension
Unknown
Apparent Declination
Unknown
Sunlit
N/A
Visualization observer readout
Local Sidereal Time
01:14:37
Azimuth
Unknown
Elevation
Unknown
Doppler factor
Unknown
Orbital elements
Apogee altitude
784.608 km
Perigee altitude
764.438 km
Semi-major axis
7,152.66 km
Eccentricity
0.00141
Inclination
98.6617°
RAAN
284.0773°
Arg. of periapsis
185.211°
True anomaly
174.90736°
Mean anomaly
174.893°
Eccentric anomaly
174.90018°
Mean motion
3.58791 °/min
Orbital period
100.34 mins
BSTAR
0.0017522
Loading maneuver chart data...
Computing Atmospheric mass density...
Loading historical data...
Loading historical data...
Loading historical data...
Loading historical data...
Loading historical data...
Loading historical data...
Loading historical data...

Documentation

Showing up to 5 results
|